Location: Unspecified
(26.1220°N, 0.0000°E)
Time: 18:19:45
(UTC+00:00)

Envisat - Pass Details

Date: 22 May 2019
Orbit: 764 x 766 km, 98.1° (Epoch: 24 June)

Event Time Altitude Azimuth Distance (km) Brightness Sun altitude
Rises 19:08:14 0° 184° (S) 3,217 6.0 -6.0°
Reaches altitude 10° 19:10:40 10° 192° (SSW) 2,294 5.3 -6.5°
Maximum altitude 19:15:23 40° 261° (W) 1,121 4.4 -7.4°
Drops below altitude 10° 19:20:08 10° 330° (NNW) 2,303 6.5 -8.4°
Sets 19:22:35 0° 338° (NNW) 3,232 7.1 -8.9°
